VRSS-1

Satellite information

Favourite Embed

Satellite Type and Status

PAYLOADIN ORBIT

Key statistics

Satellite VRSS-1 at a glance.

Uptime

4604

Days in orbit

Revolutions

≈ 14.8

Per day

Orbit

SSO

Sun Synchronous Orbit

Inclination

97.6

Latest

Satellite identification and parameters

Extended collection of information and parameters for VRSS-1.

Object identification

Identified? True

Debris? False

Object name: VRSS-1

International designator: 2012-052A

Object number (NORAD): 38782

Object ID (CCSDS): 38782

Country: VENEZUELA (VENZ)

Current information (Y/N): Y

RCS size: LARGE

Orbital parameters

Period: 97.372 minutes

Inclination: 97.5768 deg

SMA: 7011.057 km

Apoapsis: 646.669 km

Periapsis: 619.175 km

RAAN: 121.4887 deg

Eccentricy: 0.0019607

Argument of periapsis: 118.5889 deg

Mean anomaly: 241.7299 deg

Mean motion: 14.78861517 rev/day

Mean motion (dot): 0.00001474 rev/day2

B* drag term: 0.00020605 1/REarth

Two-line elements (TLE)

Creation date: May 8, 2025, 3:01 a.m.

Reference frame: TEME

Reference center: EARTH

Epoch: May 7, 2025, 10:52 p.m. UTC

TLE line 0: 0 VRSS-1

TLE line 1: 1 38782U 12052A 25127.95342252 .00001474 00000-0 20605-3 0 9999

TLE line 2: 2 38782 97.5768 121.4887 0019607 118.5889 241.7299 14.78861517679695

Live tracking on map

Real-time ground track for satellite VRSS-1.

In-orbit conjunctions

There are no conjunctions computed for VRSS-1, at the moment. Check back to stay up to date, as we update our databases every day.

Go to all conjunctions

Associated space launch

VRSS-1 was lifted into orbit during the mission ‘Long March 2D | VRSS-1’, on board a Long March 2D space rocket.

The launch took place on Sept. 29, 2012, 4:12 a.m. from Launch Area 4 (SLS-2 / 603).

For more information about the launch, click the button.

Launch to space Long March 2D | VRSS-1
Long March 2D | VRSS-1

Agency: N/A

Status: Launch Successful

Launch date: Sept. 29, 2012, 4:12 a.m. UTC

Rocket: Long March 2D

Launch pad: Launch Area 4 (SLS-2 / 603)

Location: Jiuquan Satellite Launch Center, People's Republic of China

...

Latest news about this satellite

There are no fresh news available about this satellite. Check back as we update our databases every day.


Newsletter sign-up

Weekly statistics, charts and insights to help you stay on top of the space industry.